CW8209 Weather Reports


time (UTC)temp
C
wind
direction
speed
KPH
gust
KPH
rain 1hr
cm
rain 24hr
cm
rain mn
cm
humidity
%
barometer
mb
20260503224849 10 136 4.8 12.9 0.00 0.13 0.13 80 1005.5
20260503224330 10 135 8.0 12.9 0.00 0.13 0.13 78 1005.5
20260503223830 10 113 8.0 14.5 0.00 0.13 0.13 78 1005.4
20260503223355 10 125 8.0 14.5 0.00 0.13 0.13 78 1005.4
20260503222833 10 100 6.4 12.9 0.00 0.13 0.13 78 1005.4
20260503222357 10 134 8.0 11.3 0.03 0.13 0.13 78 1005.5
20260503221835 10 119 6.4 9.7 0.03 0.13 0.13 79 1005.5
20260503221337 10 138 6.4 12.9 0.03 0.13 0.13 79 1005.6
20260503220836 10 133 4.8 14.5 0.03 0.13 0.13 79 1005.7
20260503220325 10 142 9.7 17.7 0.03 0.13 0.13 76 1005.8
20260503215825 10 160 11.3 22.5 0.05 0.13 0.13 76 1005.8
20260503215328 10 133 9.7 22.5 0.05 0.13 0.13 76 1005.9
20260503214826 10 134 11.3 24.1 0.05 0.13 0.13 76 1005.9
20260503214331 10 167 11.3 24.1 0.05 0.13 0.13 77 1005.9
20260503213830 10 178 9.7 19.3 0.05 0.13 0.13 77 1005.9
20260503213336 10 360 9.7 25.7 0.05 0.13 0.13 77 1006.0
20260503212836 9 164 14.5 25.7 0.05 0.13 0.13 78 1005.8
20260503212339 9 188 12.9 27.4 0.03 0.10 0.10 80 1005.8
20260503211838 8 360 8.0 20.9 0.03 0.10 0.10 81 1005.9
20260503211401 8 178 11.3 22.5 0.03 0.10 0.10 81 1006.0
20260503210900 8 173 16.1 27.4 0.03 0.10 0.10 81 1006.2
20260503210342 8 360 17.7 27.4 0.03 0.10 0.10 81 1006.2
20260503205840 9 360 19.3 25.7 0.00 0.08 0.08 80 1006.1
20260503205327 9 146 14.5 29.0 0.00 0.08 0.08 80 1006.1
20260503204825 9 160 14.5 29.0 0.00 0.08 0.08 81 1006.1
20260503204349 9 360 16.1 29.0 0.00 0.08 0.08 80 1006.1
20260503203828 9 154 19.3 35.4 0.00 0.08 0.08 81 1006.1
20260503203352 9 154 22.5 35.4 0.00 0.08 0.08 80 1006.0
20260503202829 9 155 17.7 30.6 0.00 0.08 0.08 81 1006.0
20260503202333 9 360 19.3 30.6 0.00 0.08 0.08 81 1006.0
20260503201833 9 144 17.7 27.4 0.00 0.08 0.08 82 1006.0
20260503201355 8 130 16.1 24.1 0.00 0.08 0.08 85 1006.1
20260503200829 8 145 16.1 24.1 0.00 0.08 0.08 86 1006.2
20260503200332 8 150 12.9 24.1 0.00 0.08 0.08 88 1006.3
20260503195832 8 173 12.9 19.3 0.03 0.08 0.08 89 1006.4
20260503195337 8 144 12.9 24.1 0.03 0.08 0.08 89 1006.4
20260503194835 7 165 11.3 24.1 0.03 0.08 0.08 90 1006.5
20260503194340 7 175 11.3 19.3 0.03 0.08 0.08 90 1006.6
20260503193838 7 153 12.9 19.3 0.05 0.08 0.08 90 1006.6
20260503193326 7 360 9.7 17.7 0.05 0.08 0.08 91 1006.8
20260503192825 7 360 8.0 17.7 0.08 0.08 0.08 90 1006.8
20260503192329 7 360 11.3 20.9 0.08 0.08 0.08 90 1006.9
20260503191828 7 360 14.5 24.1 0.08 0.08 0.08 90 1006.9
20260503191331 7 360 16.1 24.1 0.08 0.08 0.08 90 1007.1
20260503190831 7 360 9.7 17.7 0.08 0.08 0.08 90 1007.2
20260503190336 7 360 9.7 17.7 0.08 0.08 0.08 90 1007.3
20260503185833 7 360 11.3 17.7 0.05 0.05 0.05 90 1007.4
20260503185336 7 360 9.7 16.1 0.05 0.05 0.05 90 1007.5
20260503184834 7 360 12.9 16.1 0.05 0.05 0.05 89 1007.5
20260503184339 6 360 9.7 19.3 0.05 0.05 0.05 88 1007.7
20260503183824 6 360 11.3 19.3 0.03 0.03 0.03 87 1007.8
20260503183347 6 360 9.7 24.1 0.03 0.03 0.03 86 1008.0
20260503182859 6 360 12.9 27.4 0.00 0.00 0.00 84 1007.9
20260503182325 7 360 17.7 29.0 0.00 0.00 0.00 80 1008.1
20260503181901 8 360 9.7 24.1 0.00 0.00 0.00 77 1008.2
20260503181342 8 360 11.3 24.1 0.00 0.00 0.00 72 1008.1
20260503180840 10 360 14.5 22.5 0.00 0.00 0.00 65 1008.1
20260503180342 10 127 11.3 20.9 0.00 0.00 0.00 64 1008.0
20260503175900 10 360 11.3 22.5 0.00 0.00 0.00 63 1008.0
20260503175343 10 360 14.5 19.3 0.00 0.00 0.00 62 1007.9
20260503174842 10 171 8.0 19.3 0.00 0.00 0.00 63 1007.9
20260503174326 10 360 8.0 20.9 0.00 0.00 0.00 62 1008.0
20260503173843 10 150 12.9 22.5 0.00 0.00 0.00 61 1008.0
20260503173326 10 126 14.5 30.6 0.00 0.00 0.00 61 1008.1
20260503172904 10 127 16.1 30.6 0.00 0.00 0.00 58 1008.1
20260503172327 11 177 11.3 27.4 0.00 0.00 0.00 58 1008.1
20260503171825 11 182 11.3 27.4 0.00 0.00 0.00 60 1008.0
20260503171330 11 160 17.7 25.7 0.00 0.00 0.00 58 1008.1
20260503170851 11 113 16.1 27.4 0.00 0.00 0.00 59 1008.1
20260503170338 11 130 17.7 27.4 0.00 0.00 0.00 61 1008.1
20260503150826 9 142 17.7 27.4 0.00 0.00 0.00 59 1009.2
20260503150328 9 360 12.9 29.0 0.00 0.00 0.00 60 1009.2
20260503131325 7 105 11.3 17.7 0.00 0.00 0.00 64 1010.4
20260503130826 7 115 9.7 14.5 0.00 0.00 0.00 63 1010.4
20260503130349 7 101 11.3 14.5 0.00 0.00 0.00 60 1010.4
20260503110337 1 360 8.0 14.5 0.00 0.03 0.00 87 1011.0
20260503090335 0 360 4.8 6.4 0.00 0.03 0.00 86 1011.4
20260503081355 0 360 4.8 6.4 0.00 0.03 0.00 84 1011.8
20260503080852 0 360 4.8 6.4 0.00 0.03 0.00 84 1011.8
20260503080333 0 360 4.8 6.4 0.00 0.03 0.00 84 1011.9
20260503072829 0 360 4.8 9.7 0.00 0.03 0.00 80 1011.8
20260503072331 0 360 6.4 9.7 0.00 0.03 0.00 80 1011.7
20260503071830 0 360 6.4 12.9 0.00 0.03 0.00 79 1011.7
20260503071338 1 360 6.4 14.5 0.00 0.03 0.00 78 1011.7
20260503070835 1 360 6.4 14.5 0.00 0.03 0.00 78 1011.7
20260503070337 1 360 8.0 14.5 0.00 0.03 0.00 78 1011.7
20260503060338 1 360 6.4 12.9 0.00 0.03 0.00 76 1012.1
20260503054832 1 360 6.4 9.7 0.00 0.03 0.00 75 1012.3
20260503054336 0 360 6.4 9.7 0.00 0.03 0.00 75 1012.4
20260503053854 0 360 6.4 8.0 0.00 0.03 0.00 75 1012.4
20260503053336 1 360 4.8 8.0 0.00 0.03 0.00 75 1012.5
20260503052836 0 360 6.4 8.0 0.00 0.03 0.00 75 1012.5
20260503052359 0 360 6.4 9.7 0.00 0.03 0.00 75 1012.6
20260503051837 0 360 6.4 9.7 0.00 0.03 0.00 75 1012.7
20260503051340 0 360 6.4 8.0 0.00 0.03 0.00 75 1012.8
20260503050839 0 360 6.4 8.0 0.00 0.03 0.00 75 1012.7
20260503050343 0 360 6.4 8.0 0.00 0.03 0.00 75 1012.8
20260503045841 0 360 6.4 8.0 0.00 0.03 0.00 75 1012.9
20260503045324 0 360 6.4 8.0 0.00 0.03 0.00 75 1013.0
20260503044900 0 360 6.4 8.0 0.00 0.03 0.00 76 1013.1
20260503044402 0 360 6.4 8.0 0.00 0.03 0.00 77 1013.1
20260503043840 0 360 6.4 8.0 0.00 0.03 0.03 78 1013.2
20260503043340 0 360 4.8 6.4 0.00 0.03 0.03 79 1013.3
20260503042840 0 360 4.8 6.4 0.00 0.03 0.03 80 1013.3
20260503042340 0 360 4.8 6.4 0.00 0.03 0.03 82 1013.4
20260503041856 0 360 3.2 4.8 0.00 0.03 0.03 81 1013.4
20260503041335 0 360 4.8 4.8 0.00 0.03 0.03 82 1013.4
20260503040845 0 360 3.2 6.4 0.00 0.03 0.03 81 1013.5
20260503040335 0 360 3.2 6.4 0.00 0.03 0.03 81 1013.5
20260503035831 0 360 6.4 8.0 0.00 0.03 0.03 81 1013.6
20260503035331 0 360 4.8 8.0 0.00 0.03 0.03 80 1013.6
20260503034830 0 360 6.4 6.4 0.00 0.03 0.03 79 1013.7
20260503034333 0 360 4.8 6.4 0.00 0.03 0.03 79 1013.7
20260503033831 0 360 4.8 6.4 0.00 0.03 0.03 79 1013.7
20260503033333 0 360 4.8 6.4 0.00 0.03 0.03 79 1013.8
20260503032832 0 360 4.8 6.4 0.00 0.03 0.03 79 1013.8
20260503032335 0 360 4.8 6.4 0.00 0.03 0.03 79 1013.9
20260503031854 0 360 4.8 6.4 0.00 0.03 0.03 79 1013.9
20260503031336 0 360 4.8 6.4 0.00 0.03 0.03 80 1013.9
20260503030835 0 360 4.8 6.4 0.00 0.03 0.03 83 1013.9
20260503030335 0 360 4.8 6.4 0.00 0.03 0.03 84 1013.9
20260503025831 0 360 4.8 6.4 0.00 0.03 0.03 85 1014.0
20260503025331 0 360 4.8 6.4 0.00 0.03 0.03 85 1014.1
20260503024827 0 360 4.8 6.4 0.00 0.03 0.03 85 1014.1
20260503024330 0 360 4.8 6.4 0.00 0.03 0.03 86 1014.2
20260503023829 0 360 4.8 6.4 0.00 0.03 0.03 85 1014.2
20260503023329 0 360 4.8 4.8 0.00 0.03 0.03 85 1014.3
20260503022826 0 360 4.8 4.8 0.00 0.03 0.03 85 1014.3
20260503022330 0 360 3.2 4.8 0.00 0.03 0.03 84 1014.3
20260503021846 0 360 3.2 4.8 0.00 0.03 0.03 84 1014.3
20260503021327 0 360 4.8 4.8 0.00 0.03 0.03 84 1014.3
20260503020826 0 360 4.8 4.8 0.00 0.03 0.03 84 1014.3
20260503020334 0 360 4.8 4.8 0.00 0.03 0.03 84 1014.3
20260503015832 0 360 4.8 4.8 0.00 0.03 0.03 83 1014.3
20260503015332 0 360 3.2 4.8 0.00 0.03 0.03 82 1014.3
20260503014827 0 360 4.8 4.8 0.00 0.03 0.03 82 1014.3
20260503014327 0 360 4.8 4.8 0.00 0.03 0.03 81 1014.3
20260503013843 0 360 3.2 4.8 0.00 0.03 0.03 79 1014.3
20260503013343 0 360 3.2 4.8 0.00 0.03 0.03 77 1014.2
20260503012837 1 360 3.2 6.4 0.00 0.03 0.03 76 1014.2
20260503012337 1 360 4.8 6.4 0.00 0.03 0.03 75 1014.2
20260503011833 1 360 4.8 6.4 0.00 0.03 0.03 74 1014.2
20260503011332 1 360 4.8 6.4 0.00 0.03 0.03 72 1014.2
20260503010832 1 360 4.8 6.4 0.00 0.03 0.03 70 1014.2
20260503010336 1 360 4.8 6.4 0.00 0.03 0.03 69 1014.3
20260503005834 1 360 4.8 6.4 0.00 0.03 0.03 67 1014.2
20260503005338 1 360 4.8 6.4 0.00 0.03 0.03 65 1014.2
20260503004838 2 360 4.8 6.4 0.00 0.03 0.03 63 1014.2
20260503004339 2 360 4.8 4.8 0.00 0.03 0.03 62 1014.2
20260503003834 2 360 4.8 4.8 0.00 0.03 0.03 60 1014.1
20260503003335 2 360 3.2 4.8 0.00 0.03 0.03 59 1014.1
20260503002831 3 360 3.2 4.8 0.00 0.03 0.03 58 1014.2
20260503002351 3 360 3.2 4.8 0.00 0.03 0.03 58 1014.1
20260503001826 3 360 3.2 4.8 0.00 0.03 0.03 58 1014.2
20260503001329 4 360 3.2 4.8 0.00 0.03 0.03 55 1014.1
20260503000824 4 188 0.0 3.2 0.00 0.03 0.03 54 1014.1
20260503000327 5 173 1.6 3.2 0.00 0.03 0.03 54 1014.1
20260502235845 5 180 0.0 1.6 0.00 0.03 0.03 56 1014.1
20260502235326 5 180 0.0 4.8 0.00 0.03 0.03 55 1014.1
20260502234826 5 188 1.6 6.4 0.00 0.03 0.03 52 1014.1
20260502234329 5 186 3.2 6.4 0.00 0.03 0.03 52 1014.2
20260502233830 5 186 3.2 8.0 0.00 0.03 0.03 49 1014.2
20260502233352 6 183 4.8 8.0 0.00 0.03 0.03 48 1014.2
20260502232827 6 178 4.8 8.0 0.00 0.03 0.03 47 1014.2
20260502232327 6 170 6.4 8.0 0.00 0.03 0.03 51 1014.3
20260502231827 6 168 4.8 6.4 0.00 0.03 0.03 50 1014.3
20260502231331 6 186 3.2 11.3 0.00 0.03 0.03 52 1014.3
20260502230825 6 157 4.8 11.3 0.00 0.03 0.03 52 1014.4
20260502230327 6 178 4.8 9.7 0.00 0.03 0.03 54 1014.4
20260502225901 6 168 4.8 9.7 0.00 0.03 0.03 54 1014.4
20260502225340 6 150 3.2 11.3 0.00 0.03 0.03 54 1014.4